| time (UTC) | temp F | wind direction | speed knots | gust knots | rain 1hr in | rain 24hr in | rain mn in | humidity % | barometer mb |
| 20260503203227 | 87 | 74 | 2.6 | 3.5 | 0.00 | 0.00 | 0.00 | 33 | 1008.3 |
| 20260503202719 | 87 | 100 | 1.7 | 5.2 | 0.00 | 0.00 | 0.00 | 33 | 1008.5 |
| 20260503202214 | 86 | 11 | 0.0 | 6.1 | 0.00 | 0.00 | 0.00 | 32 | 1008.5 |
| 20260503201919 | 86 | 355 | 2.6 | 4.3 | 0.00 | 0.00 | 0.00 | 32 | 1008.4 |
| 20260503201155 | 86 | 112 | 2.6 | 4.3 | 0.00 | 0.00 | 0.00 | 33 | 1008.5 |
| 20260503200641 | 86 | 355 | 5.2 | 5.2 | 0.00 | 0.00 | 0.00 | 33 | 1008.6 |
| 20260503200136 | 85 | 256 | 0.9 | 4.3 | 0.00 | 0.00 | 0.00 | 33 | 1008.6 |
| 20260503195628 | 86 | 122 | 1.7 | 5.2 | 0.00 | 0.00 | 0.00 | 33 | 1008.7 |
| 20260503195611 | 86 | 299 | 0.9 | 3.5 | 0.00 | 0.00 | 0.00 | 33 | 1008.8 |
| 20260503194616 | 85 | 22 | 2.6 | 4.3 | 0.00 | 0.00 | 0.00 | 34 | 1008.9 |
| 20260503194106 | 85 | 139 | 1.7 | 3.5 | 0.00 | 0.00 | 0.00 | 35 | 1009.0 |
| 20260503193601 | 86 | 140 | 0.0 | 3.5 | 0.00 | 0.00 | 0.00 | 34 | 1009.1 |
| 20260503193306 | 86 | 334 | 1.7 | 1.7 | 0.00 | 0.00 | 0.00 | 35 | 1009.1 |
| 20260503192542 | 85 | 94 | 0.0 | 2.6 | 0.00 | 0.00 | 0.00 | 37 | 1009.0 |
| 20260503192027 | 84 | 16 | 1.7 | 4.3 | 0.00 | 0.00 | 0.00 | 37 | 1009.1 |
| 20260503191523 | 84 | 86 | 0.9 | 4.3 | 0.00 | 0.00 | 0.00 | 37 | 1009.2 |
| 20260503191503 | 82 | 264 | 0.9 | 6.1 | 0.00 | 0.00 | 0.00 | 38 | 1009.2 |
| 20260503190509 | 82 | 0 | 2.6 | 6.1 | 0.00 | 0.00 | 0.00 | 38 | 1009.4 |
| 20260503185956 | 82 | 350 | 1.7 | 4.3 | 0.00 | 0.00 | 0.00 | 39 | 1009.4 |
| 20260503185451 | 81 | 357 | 3.5 | 6.1 | 0.00 | 0.00 | 0.00 | 39 | 1009.5 |
| 20260503184942 | 80 | 46 | 1.7 | 6.1 | 0.00 | 0.00 | 0.00 | 40 | 1009.7 |
| 20260503184658 | 80 | 27 | 3.5 | 4.3 | 0.00 | 0.00 | 0.00 | 40 | 1009.5 |
| 20260503184144 | 80 | 23 | 2.6 | 4.3 | 0.00 | 0.00 | 0.00 | 40 | 1009.7 |
| 20260503183419 | 80 | 311 | 1.7 | 6.1 | 0.00 | 0.00 | 0.00 | 40 | 1009.8 |
| 20260503182910 | 80 | 27 | 1.7 | 3.5 | 0.00 | 0.00 | 0.00 | 42 | 1009.8 |
| 20260503182405 | 79 | 121 | 1.7 | 1.7 | 0.00 | 0.00 | 0.00 | 44 | 1009.8 |
| 20260503181851 | 79 | 42 | 0.9 | 5.2 | 0.00 | 0.00 | 0.00 | 44 | 1010.1 |
| 20260503181347 | 78 | 290 | 1.7 | 3.5 | 0.00 | 0.00 | 0.00 | 44 | 1010.2 |
| 20260503180832 | 77 | 339 | 0.0 | 5.2 | 0.00 | 0.00 | 0.00 | 46 | 1010.0 |
| 20260503180327 | 77 | 341 | 1.7 | 3.5 | 0.00 | 0.00 | 0.00 | 46 | 1010.3 |
| 20260503180308 | 77 | 31 | 1.7 | 4.3 | 0.00 | 0.00 | 0.00 | 45 | 1010.2 |
| 20260503175755 | 77 | 77 | 1.7 | 2.6 | 0.00 | 0.00 | 0.00 | 46 | 1010.2 |
| 20260503174803 | 76 | 335 | 1.7 | 2.6 | 0.00 | 0.00 | 0.00 | 48 | 1010.5 |
| 20260503174255 | 75 | 142 | 0.9 | 3.5 | 0.00 | 0.00 | 0.00 | 49 | 1010.5 |
| 20260503173747 | 74 | 345 | 1.7 | 5.2 | 0.00 | 0.00 | 0.00 | 49 | 1010.4 |
| 20260503173236 | 75 | 356 | 2.6 | 3.5 | 0.00 | 0.00 | 0.00 | 50 | 1010.6 |
| 20260503172731 | 73 | 99 | 1.7 | 4.3 | 0.00 | 0.00 | 0.00 | 51 | 1010.6 |
| 20260503171712 | 73 | 251 | 2.6 | 3.5 | 0.00 | 0.00 | 0.00 | 51 | 1010.6 |
| 20260503171158 | 73 | 348 | 1.7 | 2.6 | 0.00 | 0.00 | 0.00 | 52 | 1010.8 |
| 20260503170654 | 73 | 216 | 1.7 | 3.5 | 0.00 | 0.00 | 0.00 | 52 | 1010.5 |
| 20260503170145 | 73 | 5 | 1.7 | 3.5 | 0.00 | 0.00 | 0.00 | 52 | 1010.6 |
| 20260503150329 | 64 | 322 | 0.0 | 1.7 | 0.00 | 0.00 | 0.00 | 72 | 1011.3 |
| 20260503140155 | 57 | 98 | 0.0 | 1.7 | 0.00 | 0.00 | 0.00 | 81 | 1011.3 |
| 20260503131035 | 58 | 113 | 0.0 | 1.7 | 0.00 | 0.00 | 0.00 | 77 | 1010.9 |
| 20260503130521 | 58 | 40 | 0.9 | 1.7 | 0.00 | 0.00 | 0.00 | 77 | 1010.8 |
| 20260503110659 | 59 | 323 | 0.9 | 1.7 | 0.00 | 0.00 | 0.00 | 78 | 1011.3 |
| 20260503110148 | 58 | 221 | 0.0 | 0.9 | 0.00 | 0.00 | 0.00 | 79 | 1011.1 |
| 20260503090328 | 56 | 122 | 0.0 | 1.7 | 0.00 | 0.00 | 0.00 | 91 | 1012.0 |
| 20260503081207 | 57 | 42 | 0.9 | 0.9 | 0.00 | 0.00 | 0.00 | 90 | 1011.9 |
| 20260503080658 | 57 | 309 | 0.9 | 0.9 | 0.00 | 0.00 | 0.00 | 90 | 1011.9 |
| 20260503080154 | 57 | 224 | 0.0 | 0.9 | 0.00 | 0.00 | 0.00 | 90 | 1012.0 |
| 20260503072552 | 57 | 340 | 0.9 | 1.7 | 0.00 | 0.00 | 0.00 | 88 | 1012.0 |
| 20260503072043 | 58 | 65 | 0.0 | 0.9 | 0.00 | 0.00 | 0.00 | 88 | 1012.1 |
| 20260503071539 | 58 | 0 | 0.0 | 1.7 | 0.00 | 0.00 | 0.00 | 88 | 1011.9 |
| 20260503071025 | 58 | 37 | 0.0 | 0.9 | 0.00 | 0.00 | 0.00 | 88 | 1012.0 |
| 20260503070519 | 58 | 247 | 0.0 | 1.7 | 0.00 | 0.00 | 0.00 | 87 | 1012.0 |
| 20260503070231 | 58 | 44 | 0.0 | 0.0 | 0.00 | 0.00 | 0.00 | 86 | 1011.9 |
| 20260503054824 | 61 | 269 | 0.0 | 0.9 | 0.00 | 0.00 | 0.00 | 80 | 1011.6 |
| 20260503054319 | 61 | 55 | 0.0 | 0.9 | 0.00 | 0.00 | 0.00 | 79 | 1011.4 |
| 20260503053811 | 62 | 206 | 0.0 | 0.9 | 0.00 | 0.00 | 0.00 | 78 | 1011.3 |
| 20260503053306 | 62 | 106 | 1.7 | 2.6 | 0.00 | 0.00 | 0.00 | 78 | 1011.5 |
| 20260503052753 | 61 | 70 | 0.9 | 1.7 | 0.00 | 0.00 | 0.00 | 79 | 1011.4 |
| 20260503052247 | 60 | 166 | 0.0 | 1.7 | 0.00 | 0.00 | 0.00 | 82 | 1011.7 |
| 20260503051739 | 61 | 48 | 0.0 | 0.9 | 0.00 | 0.00 | 0.00 | 81 | 1011.7 |
| 20260503051235 | 61 | 358 | 0.9 | 2.6 | 0.00 | 0.00 | 0.00 | 81 | 1012.0 |
| 20260503050727 | 61 | 315 | 0.9 | 0.9 | 0.00 | 0.00 | 0.00 | 80 | 1012.2 |
| 20260503050219 | 62 | 32 | 1.7 | 1.7 | 0.00 | 0.00 | 0.00 | 80 | 1012.2 |
| 20260503045708 | 62 | 206 | 0.0 | 1.7 | 0.00 | 0.00 | 0.00 | 79 | 1012.1 |
| 20260503045203 | 62 | 317 | 0.0 | 1.7 | 0.00 | 0.00 | 0.00 | 78 | 1011.9 |
| 20260503044655 | 62 | 34 | 2.6 | 2.6 | 0.00 | 0.00 | 0.00 | 78 | 1011.9 |
| 20260503044147 | 62 | 45 | 0.0 | 1.7 | 0.00 | 0.00 | 0.00 | 78 | 1011.9 |
| 20260503043636 | 62 | 326 | 0.9 | 1.7 | 0.00 | 0.00 | 0.00 | 79 | 1011.9 |
| 20260503043131 | 62 | 50 | 0.0 | 0.9 | 0.00 | 0.00 | 0.00 | 79 | 1011.8 |
| 20260503042617 | 62 | 63 | 0.9 | 0.9 | 0.00 | 0.00 | 0.00 | 80 | 1011.9 |
| 20260503042112 | 62 | 345 | 1.7 | 1.7 | 0.00 | 0.00 | 0.00 | 80 | 1011.9 |
| 20260503041558 | 62 | 349 | 0.0 | 1.7 | 0.00 | 0.00 | 0.00 | 79 | 1012.1 |
| 20260503041053 | 62 | 30 | 0.9 | 0.9 | 0.00 | 0.00 | 0.00 | 78 | 1012.1 |
| 20260503040539 | 62 | 22 | 0.0 | 1.7 | 0.00 | 0.00 | 0.00 | 79 | 1012.2 |
| 20260503040034 | 62 | 339 | 0.9 | 1.7 | 0.00 | 0.00 | 0.00 | 78 | 1012.0 |
| 20260503035525 | 62 | 79 | 0.0 | 1.7 | 0.00 | 0.00 | 0.00 | 79 | 1011.9 |
| 20260503035020 | 63 | 356 | 0.9 | 1.7 | 0.00 | 0.00 | 0.00 | 78 | 1012.0 |
| 20260503034512 | 63 | 218 | 1.7 | 1.7 | 0.00 | 0.00 | 0.00 | 77 | 1011.9 |
| 20260503034007 | 63 | 50 | 0.0 | 1.7 | 0.00 | 0.00 | 0.00 | 77 | 1011.8 |
| 20260503033453 | 63 | 344 | 0.0 | 0.9 | 0.00 | 0.00 | 0.00 | 77 | 1011.8 |
| 20260503032654 | 64 | 323 | 1.7 | 2.6 | 0.00 | 0.00 | 0.00 | 76 | 1011.7 |
| 20260503031930 | 64 | 9 | 0.0 | 0.9 | 0.00 | 0.00 | 0.00 | 75 | 1011.5 |
| 20260503031422 | 64 | 13 | 0.9 | 1.7 | 0.00 | 0.00 | 0.00 | 74 | 1011.5 |
| 20260503030917 | 64 | 314 | 0.9 | 0.9 | 0.00 | 0.00 | 0.00 | 73 | 1011.6 |
| 20260503030402 | 64 | 346 | 0.0 | 1.7 | 0.00 | 0.00 | 0.00 | 73 | 1011.4 |
| 20260503025856 | 65 | 240 | 0.0 | 1.7 | 0.00 | 0.00 | 0.00 | 73 | 1011.5 |
| 20260503025609 | 65 | 228 | 0.0 | 2.6 | 0.00 | 0.00 | 0.00 | 73 | 1011.7 |
| 20260503024843 | 65 | 194 | 3.5 | 4.3 | 0.00 | 0.00 | 0.00 | 72 | 1011.5 |
| 20260503024334 | 65 | 206 | 1.7 | 3.5 | 0.00 | 0.00 | 0.00 | 72 | 1011.5 |
| 20260503023826 | 65 | 221 | 4.3 | 4.3 | 0.00 | 0.00 | 0.00 | 72 | 1011.6 |
| 20260503023316 | 66 | 225 | 2.6 | 3.5 | 0.00 | 0.00 | 0.00 | 71 | 1011.8 |
| 20260503022810 | 66 | 217 | 2.6 | 3.5 | 0.00 | 0.00 | 0.00 | 70 | 1011.5 |
| 20260503022256 | 66 | 164 | 2.6 | 11.3 | 0.00 | 0.00 | 0.00 | 69 | 1011.5 |
| 20260503021751 | 67 | 209 | 3.5 | 8.7 | 0.00 | 0.00 | 0.00 | 67 | 1011.5 |
| 20260503021243 | 69 | 293 | 5.2 | 5.2 | 0.00 | 0.00 | 0.00 | 65 | 1011.4 |
| 20260503020738 | 69 | 231 | 3.5 | 4.3 | 0.00 | 0.00 | 0.00 | 65 | 1011.1 |
| 20260503020231 | 69 | 167 | 1.7 | 3.5 | 0.00 | 0.00 | 0.00 | 65 | 1010.9 |
| 20260503015723 | 70 | 216 | 3.5 | 5.2 | 0.00 | 0.00 | 0.00 | 63 | 1010.7 |
| 20260503015432 | 71 | 191 | 1.7 | 1.7 | 0.00 | 0.00 | 0.00 | 61 | 1010.6 |
| 20260503014706 | 71 | 175 | 1.7 | 1.7 | 0.00 | 0.00 | 0.00 | 61 | 1010.3 |
| 20260503014152 | 71 | 308 | 0.0 | 1.7 | 0.00 | 0.00 | 0.00 | 62 | 1010.4 |
| 20260503013647 | 71 | 236 | 1.7 | 2.6 | 0.00 | 0.00 | 0.00 | 62 | 1010.5 |
| 20260503013133 | 71 | 233 | 2.6 | 3.5 | 0.00 | 0.00 | 0.00 | 62 | 1010.6 |
| 20260503012848 | 71 | 245 | 0.0 | 1.7 | 0.00 | 0.00 | 0.00 | 61 | 1010.1 |
| 20260503012120 | 71 | 235 | 0.9 | 2.6 | 0.00 | 0.00 | 0.00 | 60 | 1010.2 |
| 20260503011616 | 71 | 318 | 0.0 | 2.6 | 0.00 | 0.00 | 0.00 | 60 | 1010.2 |
| 20260503011108 | 71 | 211 | 0.0 | 1.7 | 0.00 | 0.00 | 0.00 | 60 | 1010.3 |
| 20260503010823 | 71 | 191 | 1.7 | 3.5 | 0.00 | 0.00 | 0.00 | 60 | 1010.2 |
| 20260503010049 | 72 | 237 | 1.7 | 2.6 | 0.00 | 0.00 | 0.00 | 59 | 1010.3 |
| 20260503005544 | 72 | 226 | 0.9 | 1.7 | 0.00 | 0.00 | 0.00 | 59 | 1010.1 |
| 20260503005035 | 72 | 222 | 2.6 | 3.5 | 0.00 | 0.00 | 0.00 | 58 | 1010.3 |
| 20260503004531 | 72 | 223 | 2.6 | 3.5 | 0.00 | 0.00 | 0.00 | 58 | 1010.3 |
| 20260503004020 | 72 | 200 | 2.6 | 2.6 | 0.00 | 0.00 | 0.00 | 58 | 1010.2 |
| 20260503003515 | 72 | 113 | 0.0 | 1.7 | 0.00 | 0.00 | 0.00 | 58 | 1010.3 |
| 20260503003220 | 73 | 265 | 0.9 | 2.6 | 0.00 | 0.00 | 0.00 | 57 | 1010.2 |
| 20260503002456 | 72 | 312 | 1.7 | 1.7 | 0.00 | 0.00 | 0.00 | 58 | 1010.3 |
| 20260503001942 | 72 | 299 | 1.7 | 2.6 | 0.00 | 0.00 | 0.00 | 59 | 1010.3 |
| 20260503001436 | 71 | 177 | 1.7 | 4.3 | 0.00 | 0.00 | 0.00 | 58 | 1010.4 |
| 20260503000922 | 72 | 191 | 1.7 | 1.7 | 0.00 | 0.00 | 0.00 | 59 | 1010.5 |
| 20260503000418 | 72 | 258 | 1.7 | 2.6 | 0.00 | 0.00 | 0.00 | 58 | 1010.5 |
| 20260503000129 | 72 | 198 | 0.0 | 1.7 | 0.00 | 0.00 | 0.00 | 58 | 1010.3 |
| 20260502235404 | 72 | 191 | 1.7 | 2.6 | 0.00 | 0.00 | 0.00 | 57 | 1010.3 |
| 20260502235117 | 72 | 217 | 2.6 | 4.3 | 0.00 | 0.00 | 0.00 | 58 | 1010.4 |
| 20260502234350 | 72 | 234 | 0.9 | 4.3 | 0.00 | 0.00 | 0.00 | 57 | 1010.5 |
| 20260502233840 | 72 | 192 | 2.6 | 3.5 | 0.00 | 0.00 | 0.00 | 57 | 1010.5 |
| 20260502233335 | 72 | 167 | 0.0 | 3.5 | 0.00 | 0.00 | 0.00 | 56 | 1010.6 |
| 20260502232827 | 72 | 161 | 0.9 | 2.6 | 0.00 | 0.00 | 0.00 | 57 | 1010.6 |
| 20260502232322 | 72 | 244 | 0.9 | 2.6 | 0.00 | 0.00 | 0.00 | 54 | 1010.9 |
| 20260502231808 | 72 | 278 | 0.0 | 1.7 | 0.00 | 0.00 | 0.00 | 55 | 1010.6 |
| 20260502231750 | 73 | 148 | 0.9 | 2.6 | 0.00 | 0.00 | 0.00 | 54 | 1010.9 |
| 20260502230754 | 72 | 262 | 1.7 | 3.5 | 0.00 | 0.00 | 0.00 | 55 | 1011.0 |
| 20260502230243 | 72 | 108 | 1.7 | 1.7 | 0.00 | 0.00 | 0.00 | 57 | 1010.8 |
| 20260502225738 | 72 | 220 | 1.7 | 1.7 | 0.00 | 0.00 | 0.00 | 58 | 1011.0 |
| 20260502225230 | 71 | 116 | 0.9 | 1.7 | 0.00 | 0.00 | 0.00 | 59 | 1011.3 |
| 20260502224721 | 70 | 334 | 0.9 | 3.5 | 0.00 | 0.00 | 0.00 | 60 | 1011.3 |
| 20260502224440 | 70 | 264 | 1.7 | 3.5 | 0.00 | 0.00 | 0.00 | 60 | 1011.3 |
| 20260502223703 | 70 | 119 | 0.9 | 1.7 | 0.00 | 0.00 | 0.00 | 60 | 1011.5 |
| 20260502223158 | 71 | 316 | 2.6 | 3.5 | 0.00 | 0.00 | 0.00 | 59 | 1011.5 |
| 20260502222650 | 71 | 310 | 1.7 | 1.7 | 0.00 | 0.00 | 0.00 | 59 | 1011.6 |
| 20260502222145 | 70 | 229 | 3.5 | 4.3 | 0.00 | 0.00 | 0.00 | 60 | 1011.5 |
| 20260502221631 | 70 | 256 | 2.6 | 3.5 | 0.00 | 0.00 | 0.00 | 60 | 1011.6 |
| 20260502221126 | 69 | 298 | 1.7 | 3.5 | 0.00 | 0.00 | 0.00 | 61 | 1011.6 |
| 20260502220618 | 70 | 214 | 3.5 | 5.2 | 0.00 | 0.00 | 0.00 | 59 | 1012.0 |
| 20260502220113 | 70 | 192 | 0.9 | 2.6 | 0.00 | 0.00 | 0.00 | 60 | 1011.9 |
| 20260502215606 | 69 | 205 | 1.7 | 4.3 | 0.00 | 0.00 | 0.00 | 60 | 1012.0 |
| 20260502215100 | 69 | 205 | 4.3 | 4.3 | 0.00 | 0.00 | 0.00 | 61 | 1012.3 |
| 20260502214546 | 69 | 271 | 0.9 | 3.5 | 0.00 | 0.00 | 0.00 | 63 | 1012.2 |
| 20260502214042 | 68 | 190 | 1.7 | 4.3 | 0.00 | 0.00 | 0.00 | 63 | 1012.2 |
| 20260502213527 | 67 | 232 | 3.5 | 4.3 | 0.00 | 0.00 | 0.00 | 64 | 1012.6 |
| 20260502213244 | 66 | 224 | 3.5 | 3.5 | 0.00 | 0.00 | 0.00 | 64 | 1012.5 |
| 20260502212735 | 66 | 213 | 2.6 | 6.1 | 0.00 | 0.00 | 0.00 | 63 | 1012.6 |
| 20260502212004 | 67 | 202 | 3.5 | 5.2 | 0.00 | 0.00 | 0.00 | 63 | 1012.6 |
| 20260502211458 | 66 | 285 | 1.7 | 4.3 | 0.00 | 0.00 | 0.00 | 66 | 1012.9 |
| 20260502210951 | 65 | 225 | 2.6 | 3.5 | 0.00 | 0.00 | 0.00 | 65 | 1012.7 |
| 20260502210702 | 65 | 48 | 1.7 | 3.5 | 0.00 | 0.00 | 0.00 | 66 | 1013.0 |
| 20260502205931 | 65 | 109 | 1.7 | 5.2 | 0.00 | 0.00 | 0.00 | 66 | 1013.0 |
| 20260502205647 | 65 | 178 | 0.9 | 3.5 | 0.00 | 0.00 | 0.00 | 67 | 1013.1 |
| 20260502204918 | 64 | 170 | 1.7 | 4.3 | 0.00 | 0.00 | 0.00 | 67 | 1013.3 |
| 20260502204410 | 64 | 276 | 3.5 | 3.5 | 0.00 | 0.00 | 0.00 | 68 | 1013.5 |
| 20260502203859 | 63 | 324 | 1.7 | 3.5 | 0.00 | 0.00 | 0.00 | 69 | 1013.4 |